Regional Weather Roundup
Issued by NWS

Home | Current Version | Previous Version | Graphics & Text | Print | Product List | Glossary On
Versions: 1 2 3 4 5 6 7 8 9 10 11 12 13 14 15 16 17 18 19 20 21 22 23 24 25 26 27 28 29 30 31 32 33 34 35 36 37 38 39 40 41 42 43 44 45 46 47 48 49 50
000
ASUS43 KMPX 180810
RWRMN
WEATHER ROUNDUP FOR MINNESOTA
NATIONAL WEATHER SERVICE TWIN CITIES/CHANHASSEN MN
200 AM CST SUN FEB 18 2018


NOTE: "FAIR" INDICATES FEW OR NO CLOUDS BELOW 12,000 FEET WITH NO
SIGNIFICANT WEATHER AND/OR OBSTRUCTIONS TO VISIBILITY. N/A MEANS
CURRENT SKY AND/OR WEATHER CONDITIONS ARE NOT AVAILABLE.

MNZ060>063-068>070-180900-
   Twin Cities Metro

CITY           SKY/WX    TMP DP  RH WIND       PRES   REMARKS
TWIN CITIES    CLOUDY    21   9  59 SW3       30.10R
ST PAUL        FAIR      17   8  67 E3        30.12R
CRYSTAL        FAIR      16   7  67 CALM      30.09R
BLAINE         FAIR      16   9  73 CALM      30.08R
LAKEVILLE        N/A     10   7  85 CALM      30.10R
EDEN PRAIRIE   FAIR      18   7  62 CALM      30.08R
SOUTH ST PAUL  FAIR      17   8  67 CALM      30.11R
LAKE ELMO      FAIR      10   5  79 CALM      30.11R
$$
MNZ001>005-007-008-013>017-022>024-027-028-180900-
   Northwest Minnesota

CITY           SKY/WX    TMP DP  RH WIND       PRES   REMARKS
BEMIDJI        FLURRIES   8   4  81 CALM      29.96R
HALLOCK        FAIR       1  -4  78 S8        29.98R WCI -12
WARROAD        FAIR       0  -6  78 S3        29.97R
THIEF RVR FALL FAIR       5  -2  72 SE5       29.99R WCI  -4
CROOKSTON      FAIR      10   5  79 E3        30.00S
FOSSTON        FAIR       7   0  72 CALM      29.97S
DETROIT LAKES  FAIR      10   5  79 S3        29.98S
MOORHEAD       FAIR      14   9  79 E3        29.98F
PARK RAPIDS    CLOUDY     5  -1  76 CALM      29.97R
MAHNOMEN       CLOUDY     9   4  82 S5        29.97R WCI   0
$$
MNZ006-009>011-018-025>026-180900-
   North Central Minnesota

CITY           SKY/WX    TMP DP  RH WIND       PRES   REMARKS
BAUDETTE       CLOUDY     0  -6  76 S3        29.97R
FLAG ISLAND    FAIR      -8 -15  71 SE5       29.97R WCI -19
INTL FALLS     FAIR      -3  -9  75 CALM      29.98R
WASKISH        CLOUDY     7   1  78 CALM      29.98R
BIG FORK       LGT SNOW   5   1  85 CALM      29.97S
LONGVILLE      FAIR       3   0  85 CALM      29.99R
GRAND RAPIDS   FAIR       6   1  80 S5        29.99S WCI  -3
CRANE LAKE     FAIR      -2  -8  78 CALM      30.03R
ORR            CLOUDY     1  -2  85 CALM      29.96S
COOK           CLOUDY     0  -2  92 CALM      29.99R
WALKER         FAIR       9   3  75 CALM      29.98R
$$
MNZ012-019>021-037-180900-
   Northeast Minnesota

CITY           SKY/WX    TMP DP  RH WIND       PRES   REMARKS
DULUTH         FAIR      10   1  67 SW7       29.97F WCI  -1
ELY            FAIR       3   1  92 CALM      29.97S
HIBBING        FAIR      -1  -4  87 CALM      29.96F
EVELETH        FAIR     N/A N/A N/A CALM      29.98S
DULUTH HARBOR  FAIR      16   7  67 S7        30.06S WCI   6
TWO HARBORS    FAIR       9   0  66 W3        29.99S
GRAND MARAIS     N/A     16   6  65 W9        30.03R WCI   4
G MARAIS ARPRT FAIR       3  -2  78 W5        29.93R WCI  -6
$$
MNZ029>031-032-039>041-046>048-054>057-064-180900-
   West Central Minnesota

CITY           SKY/WX    TMP DP  RH WIND       PRES   REMARKS
FERGUS FALLS   CLOUDY    16   9  73 S8        29.99F WCI   5
WHEATON        CLOUDY    16   7  67 E7        29.98F WCI   6
MORRIS         CLOUDY    19   7  58 E8        29.96F WCI   9
ALEXANDRIA     CLOUDY    17   8  67 SE6       29.99F WCI   9
ELBOW LAKE     CLOUDY    16   8  70 E7        29.99F WCI   6
WADENA         FAIR      12   5  73 S7        29.99R WCI   2
GLENWOOD       CLOUDY    16   9  73 SE5       30.00F WCI   9
APPLETON       CLOUDY    19  12  73 E8        29.98F WCI   9
BENSON         CLOUDY    18  10  73 SE6       30.00F WCI   9
ORTONVILLE     CLOUDY    19  12  73 E7        29.95F WCI  10
MADISON        CLOUDY    23  18  80 E7        29.98F WCI  15
WILLMAR        FAIR      18   9  68 SE5       30.05S WCI  11
$$
MNZ033>034-036-042>043-049>051-058-059-180900-
   Central Minnesota

CITY           SKY/WX    TMP DP  RH WIND       PRES   REMARKS
ST CLOUD       FAIR      13   7  77 CALM      30.06R
SAUK CENTRE    CLOUDY    14   8  75 CALM      30.02F
PAYNESVILLE    CLOUDY    16  10  76 CALM      30.04S
AITKIN         FAIR       7   1  78 CALM      30.01R
PINE RIVER     FAIR       1  -2  85 S3        30.03R
BRAINERD       CLOUDY    10   1  67 S5        30.03R WCI   2
STAPLES        CLOUDY     9   1  72 S6        30.01R WCI  -1
LONG PRAIRIE   FAIR      14   7  73 CALM      30.02S
LITTLE FALLS   FAIR      12   1  62 CALM      30.06R
LITCHFIELD     FAIR      19  10  68 CALM      30.05F
BUFFALO        FAIR      16   8  71 CALM      30.09R
MAPLE LAKE     FAIR      17  10  75 CALM      30.07S
HUTCHINSON     FAIR      17  12  78 E3        30.06F
$$
MNZ037-044-045-052-053-180900-
   East Central Minnesota

CITY           SKY/WX    TMP DP  RH WIND       PRES   REMARKS
PRINCETON      FAIR      12   7  79 CALM      30.07R
MORA           FAIR       9   1  72 CALM      30.07R
CAMBRIDGE        N/A     12   3  67 CALM      30.08R
RUSH CITY      FAIR      11   4  74 CALM      30.07R
MOOSE LAKE     FAIR       5   0  78 W3        30.02R
HINCKLEY       FAIR       7   3  85 CALM      30.06R
CLOQUET        FAIR       9   0  66 SW3       30.00R
MCGREGOR       FAIR      10   5  79 S5        30.02R WCI   2
$$
MNZ071>073-080-081-089-090-097-098-180900-
   Southwest Minnesota

CITY           SKY/WX    TMP DP  RH WIND       PRES   REMARKS
MONTEVIDEO     CLOUDY    19  14  79 SE5       29.99F WCI  13
GRANITE FALLS  CLOUDY    22  16  79 E3        30.01F
CANBY          CLOUDY    24  19  83 E5        29.97S WCI  18
MARSHALL       CLOUDY    23  19  85 SE6       29.98F WCI  16
REDWOOD FALLS  CLOUDY    19  15  84 E6        30.02F WCI  11
OLIVIA         CLOUDY    21  12  68 SE5       30.03S WCI  15
PIPESTONE      CLOUDY    18  16  93 SE9       29.93F WCI   6
WINDOM         CLOUDY    18   5  57 E3        29.98F
WORTHINGTON    CLOUDY    19  18  95 S7        29.98F WCI  10
JACKSON        CLOUDY    18  16  93 SE6       30.00F WCI   9
TRACY          CLOUDY    23  20  90 SE5       29.97F WCI  16
SLAYTON        CLOUDY    19  17  94 S7        29.97F WCI   9
$$
MNZ065>067-074>077-082>085-091>093-180900-
   South Central Minnesota

CITY           SKY/WX    TMP DP  RH WIND       PRES   REMARKS
MANKATO        MOCLDY    15  12  88 SE8       30.09R WCI   4
NEW ULM        CLOUDY    16  10  79 S6        30.05F WCI   7
ST JAMES       CLOUDY    16  12  86 E5        30.05F WCI   9
FAIRMONT       CLOUDY    16  14  92 S6        30.05F WCI   7
GLENCOE        FAIR      17  11  79 CALM      30.07R
FARIBAULT      FAIR       9   7  92 CALM      30.10R
OWATONNA       FAIR      12  10  92 S3        30.09R
WASECA         FAIR      12   9  85 S3        30.11R
ALBERT LEA     FAIR      16  14  93 CALM      30.08S
$$
MNZ078>079-086>088-094>096-180900-
   Southeast Minnesota

CITY           SKY/WX    TMP DP  RH WIND       PRES   REMARKS
ROCHESTER      FAIR      15  14  95 S6        30.08R WCI   6
RED WING       FAIR      10   3  72 NE3       30.10R
STANTON        FAIR       9   4  80 CALM      30.10R
DODGE CENTER   FAIR      10   9  92 S3        30.08R
WINONA         FAIR      14  14 100 CALM      30.10F
AUSTIN         MOCLDY    12  10  92 SW3       30.10R FOG
PRESTON        FAIR      18  16  92 CALM      30.08R
$$
ABBREVIATIONS USED IN REMARKS
   TC - TEMPERATURES IN CELSIUS
  WCI - WIND CHILL INDEX
   HX - HEAT INDEX
  VSB - VISIBILITY
$$




USA.gov is the U.S. government's official web portal to all federal, state and local government web resources and services.